THOR ABLESTAR DEB, 336

Orbit data source: Space-Track

THOR ABLESTAR DEB, 336 is space debris in LEO originally from a launch on Thu, 29 Jun 1961 UTC launched from the Air Force Eastern Test Range (AFETR). Debris objects in space refer to the collection of defunct objects orbiting the Earth. Examples of debris include non-operational satellites, rocket bodies, and fragments generated from explosions, collisions, or faulty payload assembly.

Loading next visibility...
Identifier
336, 1961-015DN
Orbit
LEO
Country
Flag of USUS
Related business
Manufacturer
Unknown
Mission
Spacecraft
Bus & Motor
Unknown
Mass
Unknown
Launch date (UTC)
1961-06-29 (65 years ago)
Launch vehicle
Unknown
Launch site
Air Force Eastern Test Range (AFETR)
Object type
Payload
Rocket body
Debris
Shape & HBR
Unknown shape, 0.1 m
Radar Cross Section
Medium (>0.1 m² and <1 m²)

Expand to show TLE details & history
Last TLE update: 9 hours ago

TLE from 9 hours ago
0 THOR ABLESTAR DEB
1 00336U 61015DN  26176.24985949  .00000070  00000-0  15908-3 0  9990
2 00336  67.0283 175.2840 0072982 133.7855 245.5377 13.69220071240300
Epoch: 2026-06-25T05:59Z
TLE epoch observation values (Epoch: 2026-06-25T05:59:47.859Z)
Latitude
17.04659°
Longitude
179.36847°
Altitude
1,026.467 km
Speed
7.329 km/s
True Right ascension
12h 10m 51s
True Declination
16° 57' 14"
Sunlit
Object was in daylight at epoch
Visualization orbit readout
Latitude
Unknown
Longitude
Unknown
Altitude
Unknown
Speed
Unknown
Apparent Right ascension
Unknown
Apparent Declination
Unknown
Sunlit
N/A
Visualization observer readout
Local Sidereal Time
02:33:33
Azimuth
Unknown
Elevation
Unknown
Doppler factor
Unknown
Orbital elements
Apogee altitude
1,054.609 km
Perigee altitude
946.904 km
Semi-major axis
7,378.894 km
Eccentricity
0.0073
Inclination
67.0283°
RAAN
175.284°
Arg. of periapsis
133.7855°
True anomaly
244.77935°
Mean anomaly
245.5377°
Eccentric anomaly
245.15824°
Mean motion
3.42418 °/min
Orbital period
105.13 mins
BSTAR
0.00015908
Loading maneuver chart data...
Computing Atmospheric mass density...

Documentation

Showing up to 5 results
|